Location: Unspecified
(0.0000°N, 0.0000°E)
Time: 05:20:23
(UTC+01:00)

GP-B - Visible Passes

Search period start: 21 November 2014 00:00
Search period end: 01 December 2014 00:00
Orbit: 635 x 637 km, 89.9° (Epoch: 20 November)

Date Brightness Start Highest point End Pass type
(mag) Time Alt. Az. Time Alt. Az. Time Alt. Az.
22 Nov 5.9 05:14:32 10° SE 05:17:30 18° E 05:20:27 10° NE visible
23 Nov 4.4 05:35:50 10° SSE 05:40:02 41° E 05:44:12 10° NNE visible
24 Nov 3.0 05:58:06 10° S 06:02:33 79° W 06:06:59 10° N visible
25 Nov 3.9 06:21:07 10° SSW 06:25:05 32° W 06:29:01 10° NNW visible
26 Nov 5.4 05:06:59 10° SE 05:10:31 23° E 05:14:02 10° NNE visible
27 Nov 3.8 05:28:41 10° SSE 05:33:03 56° E 05:37:23 10° N visible
28 Nov 3.1 05:51:12 10° S 05:55:34 58° W 05:59:55 10° NNW visible
29 Nov 6.0 04:38:53 10° ESE 04:41:00 13° E 04:43:06 10° ENE visible
29 Nov 4.2 06:14:30 10° SSW 06:18:04 24° W 06:21:38 10° NW visible
30 Nov 4.9 04:59:35 10° SSE 05:03:31 31° E 05:07:25 10° NNE visible
